Location: La Tine
(46.4708°N, 7.0525°E)
Time: 11:21:31
(UTC+00:00)

Cosmos 2082 Rocket - Pass Details

Date: 18 September 2020
Orbit: 834 x 853 km, 71.0° (Epoch: 24 October)

Event Time Altitude Azimuth Distance (km) Brightness Sun altitude
Rises 22:23:52 0° 327° (NNW) 3,392 6.2 -40.2°
Reaches altitude 10° 22:26:27 10° 320° (NW) 2,454 5.2 -40.4°
Enters shadow 22:28:05 19° 311° (NW) 1,913 4.5 -40.5°
